Wind_Speed
26 32 33 31 30 28 24 21 20 19 17 15 12 9 6 5 6 6 2 0 1 1 3 5 6 9 9 8 6 5 3 5 6 7 7 7 7 7 8 11 12 12 11
17 22 29 34 34 31 30 27 24 23 21 20 17 13 10 8 6 6 6 2 1 2 1 1 3 6 8 7 7 6 5 4 5 6 7 7 7 7 8 11 13 13 11
20 18 18 25 35 37 35 31 29 27 24 23 21 18 15 12 9 7 8 7 2 3 4 3 2 2 6 7 6 6 6 6 5 5 6 7 7 8 8 11 13 13 12
24 22 21 20 22 30 40 39 35 31 27 25 23 22 19 17 14 11 8 9 7 4 5 5 4 2 1 5 5 4 4 5 5 5 6 7 8 8 9 11 12 12 12
26 25 23 23 22 20 25 38 40 36 31 28 26 24 22 20 18 15 12 10 11 9 6 7 6 5 4 4 5 4 3 3 5 5 6 7 8 9 10 11 12 13 13
30 28 25 24 24 21 19 24 36 38 37 33 29 27 26 23 21 18 16 13 12 13 11 8 8 8 7 6 6 5 4 4 4 5 6 7 8 9 11 12 13 14 14
34 32 28 26 25 25 22 20 22 29 39 38 35 31 29 27 24 21 19 17 15 14 14 13 10 9 10 10 9 8 7 6 7 7 7 8 8 9 11 12 14 15 16
38 36 34 31 27 27 26 22 21 21 25 33 40 36 33 30 29 26 24 20 18 17 16 17 15 11 12 13 12 12 10 10 10 9 9 9 10 11 12 13 15 16 17
43 41 38 35 32 30 29 28 26 24 23 23 29 39 37 34 31 27 26 24 22 21 20 18 18 17 14 14 15 15 14 13 13 13 12 12 13 13 13 14 16 17 18
50 47 44 40 37 35 34 32 30 29 27 25 24 27 37 38 34 30 28 27 25 25 23 22 21 20 19 18 18 17 17 17 16 16 16 17 17 17 17 17 17 18 19
53 53 49 46 40 40 38 36 33 31 30 28 24 23 26 33 37 36 33 32 30 28 27 25 25 24 22 21 20 20 20 20 20 19 20 20 19 20 20 20 20 20 20
54 55 55 52 48 43 40 40 37 34 34 31 29 27 25 26 30 35 37 37 35 33 31 29 28 27 25 24 23 23 22 22 23 23 22 22 22 22 22 22 23 23 23
56 56 57 57 53 50 44 41 42 40 37 35 33 31 30 29 27 28 32 37 38 38 36 34 33 30 30 29 27 26 25 25 26 25 25 25 25 25 24 25 25 25 26
59 58 59 59 57 49 50 44 43 42 43 39 38 36 34 33 31 29 29 31 35 39 41 40 36 34 34 33 31 30 29 29 29 28 27 28 27 27 28 28 28 29 30
62 61 60 61 59 57 56 50 45 44 43 44 44 43 38 35 35 31 32 33 34 36 39 41 40 39 37 34 34 33 33 31 31 31 30 30 30 30 31 31 30 31 33
65 65 65 63 62 62 60 57 51 47 47 47 44 44 44 41 38 36 34 33 30 31 34 38 41 43 40 39 36 37 37 36 34 33 33 32 33 33 33 32 32 33 35
65 67 67 67 65 63 63 61 57 55 49 48 47 47 45 42 40 39 37 35 30 30 32 34 37 41 42 44 41 40 41 40 39 37 35 35 36 35 35 35 34 34 36
62 66 69 70 68 66 65 63 61 57 57 49 50 48 45 41 41 41 39 36 35 33 35 37 37 37 39 40 41 42 45 44 42 40 37 38 38 37 36 36 36 35 35
62 65 70 73 72 70 69 67 65 64 60 56 52 52 48 47 43 42 45 41 38 39 39 40 40 38 40 43 49 45 47 50 42 41 42 41 40 40 39 38 39 37 42
69 67 69 74 75 75 74 70 68 67 65 62 59 59 54 52 47 45 45 47 43 41 40 39 39 43 40 46 46 47 51 41 40 45 49 47 44 43 41 41 40 41 48
73 72 72 76 76 77 75 72 70 69 68 67 64 63 58 57 55 54 51 49 47 44 43 42 42 42 47 42 48 45 47 53 51 44 43 47 46 46 43 46 46 48 53
68 70 73 75 77 75 73 73 71 69 68 66 62 61 62 60 59 57 55 53 49 48 47 48 45 48 47 49 54 53 48 52 53 52 56 58 59 55 51 51 52 53 54
59 62 71 72 73 72 71 72 72 71 70 70 67 63 59 60 58 63 56 54 54 53 53 53 54 52 52 54 60 57 51 43 50 57 61 63 64 65 55 59 52 55 52
55 59 62 71 70 70 70 70 72 69 68 66 66 66 66 65 67 64 60 59 61 56 55 55 59 59 55 55 55 55 52 54 48 51 59 65 57 56 58 45 45 40 37
45 51 60 66 70 68 67 66 67 69 67 66 66 65 65 64 64 64 62 63 60 59 59 59 59 57 55 55 55 57 58 58 60 62 58 60 49 42 35 32 32 35 37
34 37 50 60 67 69 67 64 63 64 66 64 61 61 61 61 63 62 62 61 60 62 62 59 59 60 57 59 57 52 53 55 59 66 60 39 38 34 34 37 37 40 40
Wind_Direction
239 242 242 242 244 248 246 237 236 235 243 245 250 257 254 240 212 197 176 155 301 359 98 70 61 35 25 17 9 355 324 293 294 301 311 318 322 329 342 352 355 359 359
248 239 236 238 239 241 246 245 239 238 237 245 246 251 253 249 244 223 211 220 251 266 218 115 86 45 31 20 11 0 347 333 317 313 311 310 314 315 330 345 350 354 356
256 256 255 243 236 237 240 242 243 240 240 241 247 248 251 252 248 244 231 224 246 248 228 208 171 61 21 18 21 12 1 349 338 330 322 316 313 308 321 335 344 350 355
256 257 255 253 251 242 236 237 241 240 241 242 244 248 249 251 248 246 243 235 234 252 249 232 213 202 339 350 12 18 8 352 341 335 322 312 307 303 311 322 331 339 345
250 254 256 258 256 256 251 240 238 240 240 241 244 246 248 247 246 243 243 244 234 242 249 245 233 225 240 298 329 350 348 337 327 320 315 311 304 301 302 308 317 325 332
245 248 253 257 261 259 253 248 245 240 242 242 243 245 246 247 248 246 245 240 244 236 241 251 246 235 239 254 283 306 314 307 302 306 308 305 303 301 302 306 313 316 318
244 246 247 251 256 259 258 253 251 251 245 245 244 243 247 249 248 250 247 246 244 241 238 244 249 247 244 248 257 270 281 290 293 292 293 293 294 297 300 301 304 304 309
241 241 246 245 244 252 254 252 256 260 255 251 247 245 245 248 251 251 252 249 251 250 243 239 245 251 252 253 252 257 261 268 276 281 285 286 288 292 295 297 298 302 305
240 241 240 241 242 242 249 253 252 253 257 256 256 248 245 243 246 248 249 253 252 254 254 248 243 246 251 256 258 257 258 260 266 270 271 275 280 279 285 294 299 301 302
241 242 242 239 238 239 242 245 249 254 253 255 258 259 250 247 247 246 248 249 252 254 256 255 250 246 247 251 256 258 257 256 258 266 271 272 274 278 276 281 289 295 297
241 243 241 242 241 236 237 241 242 248 253 254 253 258 261 254 250 250 248 249 253 254 254 256 256 251 249 250 253 254 257 259 258 258 263 269 273 276 277 276 280 287 291
240 242 244 242 241 242 240 240 244 244 247 249 254 253 255 258 255 254 255 255 254 254 253 253 255 256 251 250 250 252 255 257 259 260 263 268 271 273 276 276 276 281 285
241 241 242 243 241 241 242 240 242 241 242 247 251 254 254 253 256 256 257 257 257 257 254 253 254 256 256 251 250 252 252 254 256 257 260 264 268 272 274 275 275 275 278
239 241 242 242 242 238 245 240 240 242 238 241 248 250 251 254 255 256 254 256 257 258 257 256 253 252 255 256 255 254 256 256 256 256 258 262 267 270 273 274 274 274 276
241 239 240 242 241 236 236 239 238 236 237 238 242 249 250 252 255 252 251 254 254 257 259 259 257 257 254 256 258 257 257 258 259 259 260 260 263 267 270 274 277 278 280
242 240 240 239 241 240 238 237 236 235 236 237 239 241 246 250 251 248 247 248 250 255 258 260 259 259 258 256 257 258 258 260 262 263 262 264 265 267 270 273 276 280 282
247 243 238 238 238 240 241 237 235 235 235 240 240 241 243 245 245 244 245 245 244 250 258 260 262 261 260 259 255 257 259 261 261 262 263 264 265 266 270 274 277 282 285
250 246 242 238 237 238 240 239 235 234 236 234 236 238 236 241 248 243 238 242 249 251 255 259 260 262 268 267 259 257 261 259 262 262 264 264 265 266 269 272 276 279 283
255 250 244 239 237 235 236 237 236 234 232 232 231 235 238 246 246 243 238 244 256 254 254 261 261 262 265 263 268 272 270 254 257 262 262 263 264 265 267 270 273 275 276
258 253 248 242 236 235 233 234 235 235 233 230 234 238 237 241 244 245 245 251 259 254 255 254 257 260 264 267 262 276 277 256 257 265 263 263 263 263 265 265 267 270 272
253 250 245 243 238 235 234 233 233 235 236 233 234 238 239 240 242 244 245 249 255 254 254 259 261 258 263 260 259 265 269 263 265 262 260 260 260 260 263 265 265 269 270
249 243 239 239 239 236 234 234 233 233 235 235 234 237 239 243 244 247 248 251 251 255 258 260 263 257 260 261 259 264 268 261 268 257 265 270 265 259 261 263 265 269 271
251 245 236 236 237 238 235 234 234 233 232 234 235 236 238 236 241 246 248 250 251 250 254 261 262 261 264 264 261 267 260 266 267 270 271 273 268 261 258 261 269 271 274
245 243 239 233 234 236 237 233 233 234 234 235 238 239 240 240 242 249 251 250 253 253 252 256 259 260 259 264 263 263 263 267 266 271 275 267 274 273 273 276 276 276 277
248 245 240 234 232 233 236 237 234 234 235 235 236 238 241 243 247 251 254 256 259 264 265 263 264 267 264 260 262 262 264 267 261 268 274 275 275 269 264 278 284 279 279
246 248 240 236 231 230 232 235 235 234 234 236 239 239 241 244 247 250 255 258 261 264 267 269 268 266 260 259 258 256 257 264 264 269 275 268 259 261 271 273 274 277 280
Height
5867 5871 5874 5878 5880 5882 5884 5886 5887 5889 5890 5891 5892 5892 5893 5893 5893 5894 5895 5897 5897 5897 5898 5898 5898 5899 5899 5899 5899 5899 5899 5900 5900 5900 5899 5899 5899 5898 5898 5897 5895 5894 5892
5864 5866 5868 5872 5874 5877 5880 5882 5884 5885 5887 5889 5890 5890 5891 5892 5892 5893 5894 5895 5896 5897 5897 5898 5898 5898 5899 5899 5899 5899 5899 5899 5899 5899 5899 5899 5899 5898 5898 5897 5895 5894 5892
5862 5864 5865 5866 5867 5871 5874 5877 5879 5881 5884 5885 5887 5888 5889 5890 5891 5892 5893 5894 5895 5896 5897 5897 5898 5898 5898 5899 5898 5899 5899 5899 5898 5898 5898 5898 5898 5898 5898 5897 5895 5893 5892
5858 5860 5862 5862 5864 5865 5868 5871 5874 5876 5879 5882 5883 5885 5887 5888 5889 5890 5891 5892 5893 5894 5895 5896 5896 5897 5897 5898 5898 5898 5898 5898 5898 5898 5897 5897 5897 5896 5896 5896 5894 5893 5892
5854 5856 5858 5859 5860 5862 5864 5866 5869 5872 5875 5877 5879 5882 5884 5885 5887 5888 5889 5890 5891 5892 5893 5894 5895 5895 5896 5896 5897 5897 5897 5897 5897 5896 5896 5896 5896 5895 5895 5894 5893 5892 5891
5850 5852 5854 5856 5857 5858 5860 5862 5864 5867 5870 5872 5875 5878 5880 5882 5883 5885 5887 5887 5888 5889 5890 5891 5892 5893 5894 5894 5895 5895 5895 5895 5895 5895 5895 5894 5894 5893 5893 5893 5892 5891 5889
5844 5847 5849 5851 5853 5854 5856 5858 5860 5862 5865 5867 5870 5873 5876 5878 5879 5882 5884 5885 5885 5886 5887 5888 5889 5890 5891 5892 5893 5893 5893 5893 5893 5893 5893 5893 5892 5892 5891 5890 5889 5888 5888
5838 5841 5844 5846 5848 5851 5853 5855 5857 5859 5860 5862 5865 5868 5871 5873 5875 5877 5879 5881 5883 5883 5883 5884 5885 5887 5888 5888 5889 5890 5890 5891 5891 5890 5891 5891 5890 5890 5889 5888 5887 5886 5885
5831 5834 5837 5840 5843 5846 5848 5850 5853 5855 5857 5859 5860 5862 5864 5867 5869 5872 5874 5877 5879 5880 5881 5881 5881 5883 5884 5885 5886 5887 5887 5888 5888 5887 5887 5887 5887 5887 5886 5885 5884 5883 5882
5825 5827 5831 5833 5837 5840 5842 5845 5847 5849 5852 5854 5856 5857 5859 5861 5864 5866 5869 5871 5873 5875 5877 5878 5878 5878 5880 5881 5882 5883 5884 5884 5884 5884 5884 5883 5883 5883 5882 5881 5880 5879 5878
5818 5820 5823 5827 5830 5833 5836 5838 5841 5843 5845 5849 5851 5853 5854 5856 5858 5861 5864 5866 5867 5870 5872 5873 5874 5875 5875 5876 5877 5878 5879 5880 5880 5880 5880 5879 5879 5879 5878 5877 5876 5875 5874
5809 5812 5816 5819 5823 5826 5829 5832 5835 5838 5839 5842 5845 5847 5849 5850 5852 5854 5857 5860 5862 5864 5865 5867 5868 5870 5870 5871 5872 5872 5873 5874 5875 5875 5875 5875 5875 5874 5874 5873 5872 5871 5869
5798 5803 5806 5810 5815 5819 5822 5824 5827 5831 5833 5835 5838 5840 5843 5845 5847 5848 5849 5852 5855 5857 5858 5860 5862 5864 5865 5865 5866 5867 5867 5868 5868 5869 5870 5870 5870 5870 5869 5867 5866 5865 5864
5787 5792 5797 5800 5806 5811 5813 5817 5820 5823 5825 5828 5830 5832 5835 5838 5841 5842 5843 5844 5846 5849 5851 5853 5855 5857 5858 5859 5860 5861 5862 5862 5863 5862 5863 5864 5864 5863 5863 5862 5861 5860 5858
5776 5779 5784 5790 5795 5801 5804 5808 5812 5814 5817 5820 5823 5825 5828 5831 5833 5835 5836 5837 5839 5841 5843 5845 5848 5850 5852 5853 5854 5855 5855 5856 5857 5857 5857 5857 5857 5857 5856 5856 5856 5855 5853
5760 5768 5771 5778 5783 5789 5794 5799 5803 5805 5809 5812 5815 5817 5820 5823 5826 5828 5829 5830 5832 5834 5835 5836 5839 5841 5843 5845 5847 5848 5849 5850 5850 5850 5851 5851 5851 5851 5850 5850 5849 5848 5847
5748 5753 5759 5764 5769 5775 5782 5788 5792 5796 5800 5803 5806 5808 5812 5814 5817 5819 5822 5823 5825 5827 5827 5828 5830 5831 5834 5836 5839 5840 5842 5843 5842 5843 5844 5844 5844 5843 5843 5843 5842 5841 5840
5732 5739 5746 5751 5757 5763 5769 5776 5781 5785 5790 5793 5797 5800 5803 5805 5808 5811 5814 5815 5817 5819 5820 5820 5822 5825 5826 5827 5829 5832 5833 5835 5835 5836 5836 5836 5836 5836 5836 5835 5835 5833 5832
5718 5723 5728 5735 5742 5747 5754 5761 5768 5773 5777 5783 5787 5790 5795 5798 5799 5802 5805 5807 5809 5812 5813 5813 5815 5816 5818 5820 5821 5823 5824 5826 5826 5828 5827 5827 5828 5829 5827 5826 5826 5824 5823
5703 5707 5711 5718 5725 5730 5735 5744 5753 5760 5765 5771 5776 5780 5784 5788 5790 5793 5796 5799 5801 5802 5805 5806 5806 5807 5809 5810 5812 5813 5812 5814 5816 5818 5819 5819 5819 5818 5818 5817 5815 5814 5812
5684 5689 5694 5698 5708 5713 5721 5730 5738 5747 5753 5760 5765 5769 5774 5776 5781 5783 5787 5789 5792 5794 5795 5796 5798 5799 5800 5800 5802 5804 5803 5804 5804 5807 5809 5809 5808 5806 5808 5805 5804 5803 5802
5661 5668 5675 5683 5689 5698 5709 5717 5725 5734 5740 5746 5752 5757 5762 5767 5770 5775 5778 5781 5782 5784 5786 5787 5789 5790 5791 5792 5792 5793 5795 5794 5795 5794 5796 5796 5796 5795 5794 5793 5793 5793 5792
5646 5652 5659 5668 5675 5683 5695 5702 5711 5718 5726 5732 5739 5745 5752 5757 5760 5763 5766 5769 5773 5775 5776 5777 5778 5780 5779 5780 5780 5782 5783 5784 5783 5785 5785 5783 5782 5780 5780 5779 5780 5781 5780
5630 5635 5642 5652 5659 5666 5675 5686 5696 5707 5716 5725 5731 5736 5739 5744 5747 5751 5756 5758 5760 5762 5765 5768 5767 5767 5768 5770 5769 5770 5771 5773 5773 5774 5772 5770 5770 5772 5770 5769 5770 5771 5770
5617 5621 5626 5634 5643 5651 5661 5673 5684 5693 5702 5709 5717 5724 5729 5734 5738 5741 5743 5746 5750 5751 5753 5755 5755 5755 5756 5756 5757 5758 5759 5760 5762 5761 5762 5760 5759 5762 5761 5761 5761 5763 5761
5606 5607 5609 5617 5627 5637 5649 5659 5670 5681 5690 5699 5708 5713 5719 5724 5726 5730 5732 5735 5738 5738 5740 5742 5741 5740 5742 5743 5745 5746 5748 5750 5751 5750 5749 5749 5749 5752 5752 5753 5753 5753 5752